Wind_Speed
17 18 18 19 20 21 22 24 24 25 24 24 22 22 22 23 23 23 23 22 21 20 19 18 17 17 17 16 15 15 17 18 17 16 16 14 11 10 9 10 11 12 12 13 15 16 18 19 20 19 18 17 15 14 13 13 12 11 11 11 11 12 12 12 13 13 14 15 17 18 19 22 24 25 25 25 26 27 30 31 32 32 32 32 33
17 18 19 20 20 21 23 24 25 26 26 25 24 23 24 24 24 24 23 22 22 21 20 20 19 19 18 17 15 15 17 19 18 17 17 16 13 11 11 12 12 13 14 15 16 18 19 20 20 20 18 15 14 13 12 12 12 12 12 12 12 12 13 13 14 15 16 17 18 19 20 22 24 25 25 25 26 28 30 31 32 32 32 32 33
18 20 21 20 20 22 22 23 25 26 27 26 25 25 25 25 25 24 24 23 23 22 22 22 21 21 20 18 17 16 17 19 19 18 19 18 15 13 12 13 14 14 15 16 17 19 20 21 21 19 16 14 12 12 12 13 13 14 14 15 15 15 15 15 16 17 19 20 20 20 21 23 25 26 26 26 27 29 31 31 31 31 31 32 33
21 22 21 21 21 21 21 21 22 23 24 25 26 26 26 26 26 25 24 24 23 23 24 24 24 23 22 20 18 17 18 20 20 19 20 19 17 15 14 14 15 16 16 17 18 19 20 21 20 17 15 14 13 13 13 14 15 16 17 17 17 17 17 18 19 20 21 23 24 24 23 24 25 27 28 29 29 30 31 31 30 30 31 32 34
22 22 22 21 20 19 18 17 18 19 20 22 24 26 27 27 27 26 25 25 24 25 25 26 26 25 24 22 20 19 20 21 21 20 21 20 19 17 16 15 16 16 17 18 18 19 20 20 18 16 15 14 14 14 15 16 17 18 18 19 19 19 20 20 21 21 23 25 26 27 27 28 28 29 30 31 31 32 32 31 30 31 32 33 35
22 22 22 20 18 15 13 12 13 15 18 20 22 24 25 26 27 27 26 26 26 26 27 27 28 27 26 24 22 21 21 22 22 21 21 21 20 19 17 17 17 17 18 18 19 19 19 17 15 15 14 15 15 16 17 18 19 19 19 20 20 20 21 21 22 22 23 25 27 29 30 31 32 32 32 32 33 33 33 32 31 32 33 34 36
23 23 22 19 16 13 11 10 11 12 14 16 18 20 21 23 24 25 26 25 26 27 28 28 29 28 27 26 24 22 23 23 23 22 22 22 22 20 19 18 18 18 18 18 19 20 18 16 14 14 15 16 16 16 18 19 20 21 21 21 21 21 22 23 23 24 24 25 27 29 30 31 33 34 35 35 34 34 34 33 32 33 35 36 37
23 23 21 18 16 14 12 11 10 10 10 10 11 13 15 17 18 19 20 19 20 22 23 25 26 26 26 26 25 24 24 24 24 23 22 23 23 22 21 19 18 19 18 18 19 19 18 16 14 15 16 18 19 20 21 21 21 21 21 21 22 23 24 25 26 26 26 27 28 29 30 32 34 35 36 37 37 36 35 34 34 35 37 38 40
24 23 20 18 16 16 15 13 12 10 8 6 7 8 10 11 13 13 13 14 14 15 16 18 19 20 21 22 23 23 24 24 24 24 23 24 25 24 23 20 19 19 19 18 19 18 18 17 15 16 17 20 22 23 24 23 23 22 22 22 23 24 26 28 29 29 29 28 29 30 31 33 34 35 36 37 38 37 37 37 37 39 40 41 43
22 21 19 17 17 18 17 15 13 12 9 7 7 7 8 9 10 10 10 11 12 13 13 13 14 15 17 19 21 21 22 23 25 26 25 25 27 26 25 22 20 20 20 19 19 18 18 17 16 16 18 20 22 24 24 24 24 24 24 25 26 27 28 29 30 31 30 30 30 31 32 34 35 36 37 38 38 38 38 39 40 41 42 43 44
20 19 17 16 18 19 18 16 14 13 11 9 9 9 10 10 10 9 9 9 11 12 13 13 14 15 15 17 18 19 21 23 26 27 27 27 28 28 27 24 22 22 21 20 20 19 19 18 17 17 18 19 21 23 24 24 25 26 27 28 29 29 30 31 31 31 31 31 31 33 34 35 36 37 38 38 39 39 40 41 43 43 44 45 45
19 18 17 17 19 20 18 16 15 14 13 12 11 12 13 13 11 10 10 10 11 11 11 12 14 15 16 17 17 17 20 23 26 28 28 29 29 30 29 27 25 23 23 22 21 20 20 18 17 17 18 19 20 22 24 24 26 28 29 31 31 31 31 32 32 32 31 32 33 34 36 37 37 38 39 40 40 40 41 43 44 45 46 46 46
20 20 19 20 20 19 18 17 15 14 14 14 15 16 16 14 14 13 13 13 12 11 11 12 13 15 16 16 17 18 20 23 27 28 29 30 30 31 31 29 27 26 25 24 23 22 20 19 18 18 19 19 20 22 24 25 27 29 30 31 31 32 33 33 33 32 31 32 34 35 37 38 38 39 40 40 41 42 43 44 44 45 45 45 45
23 23 22 21 19 19 19 17 16 16 16 17 18 19 18 17 16 17 17 16 15 13 13 14 14 14 15 16 18 19 20 22 26 28 30 31 31 32 32 31 29 27 26 26 25 23 21 20 19 19 20 20 20 22 25 26 27 29 31 31 32 32 33 34 34 33 32 33 34 36 37 38 39 39 40 41 42 43 44 45 44 43 43 42 42
26 25 23 22 21 20 20 19 18 18 18 19 20 21 21 20 19 19 20 20 19 17 17 17 16 16 16 16 18 19 20 22 26 28 31 31 32 33 33 32 30 28 27 27 27 25 23 22 21 21 22 22 22 23 25 27 28 30 32 33 33 33 34 34 35 34 34 34 35 36 38 39 39 40 41 42 43 43 44 45 44 42 41 40 39
28 27 25 23 23 23 22 21 21 21 22 22 22 22 22 22 22 22 22 23 23 22 21 20 19 19 19 19 19 19 20 22 25 28 31 33 33 34 34 33 31 29 28 28 28 27 26 24 23 23 23 24 25 25 26 28 30 31 33 34 34 34 35 35 35 36 36 36 37 37 38 39 40 40 41 42 43 44 44 43 42 40 40 39 37
31 30 28 26 26 26 25 24 26 27 26 25 24 24 24 24 24 24 24 25 26 26 26 25 24 24 24 23 21 20 21 23 24 28 32 34 35 35 35 35 33 31 30 30 30 29 27 26 25 25 25 27 28 28 28 30 32 33 34 34 35 35 36 37 37 38 38 39 39 39 38 39 40 41 41 42 43 44 44 42 39 38 37 36 34
30 29 29 28 29 30 31 32 32 31 30 28 27 27 27 27 27 28 28 29 29 30 30 30 30 29 28 26 24 23 23 24 25 28 32 36 37 36 37 37 36 34 32 31 31 31 29 27 27 27 28 30 31 30 31 32 34 35 35 35 36 37 38 39 40 41 41 40 40 39 39 39 40 40 41 43 43 43 42 39 37 36 35 34 33
30 29 26 25 29 34 36 36 34 32 31 31 30 30 30 31 32 32 32 31 32 33 34 34 35 34 32 30 29 28 27 27 27 28 32 35 38 39 40 40 38 36 34 33 32 32 31 30 30 29 30 32 33 33 33 34 35 36 36 36 38 39 39 41 43 44 43 40 39 39 39 39 40 41 41 42 43 42 39 36 35 34 34 33 32
33 32 28 25 28 33 35 34 33 35 36 36 34 34 35 35 35 34 33 33 34 36 36 36 37 37 37 36 34 32 31 31 30 30 32 36 39 41 42 42 40 37 37 36 35 34 33 33 32 31 33 35 35 34 35 36 37 37 37 37 38 39 41 42 44 46 44 39 38 39 39 39 40 41 42 43 42 40 36 34 33 33 32 31 32
36 36 34 31 32 34 34 34 35 37 40 40 38 37 38 37 36 36 36 36 37 37 38 37 38 38 39 40 39 37 36 36 34 33 34 37 40 42 43 44 42 40 40 40 39 37 36 36 35 35 36 38 38 38 37 37 39 39 38 38 39 40 42 43 45 46 44 39 37 38 39 39 40 41 42 42 40 37 34 33 32 30 30 31 33
37 37 37 36 37 37 37 37 39 39 40 40 39 38 39 40 40 39 40 41 40 40 40 39 40 40 41 42 43 42 41 40 39 37 37 39 41 43 44 44 44 44 44 43 41 39 39 39 38 38 39 41 42 41 39 38 40 41 40 40 41 42 42 43 44 45 43 39 37 38 39 39 40 41 42 41 38 35 32 30 29 28 29 31 33
37 37 38 37 38 39 40 40 41 39 38 38 38 38 39 42 41 40 40 40 41 42 41 41 41 41 42 43 44 44 45 45 43 42 41 41 43 45 45 46 47 48 47 45 44 44 42 41 42 42 43 44 46 47 44 41 42 42 42 42 42 42 43 43 43 44 42 39 38 39 39 40 40 41 41 40 36 33 30 28 28 28 30 32 33
37 36 35 35 36 38 38 38 38 38 37 37 37 37 37 38 38 38 38 37 39 40 40 41 41 41 41 41 41 43 46 47 47 46 46 45 45 48 49 50 51 52 51 49 48 49 47 46 46 47 46 47 49 50 47 44 43 43 43 44 44 44 43 43 44 44 41 39 39 39 39 40 41 41 41 38 34 31 29 27 27 28 30 31 33
37 36 36 36 36 37 37 37 36 37 37 37 37 37 38 39 41 41 41 40 41 42 42 44 44 44 44 43 42 44 46 47 46 47 48 48 48 50 52 54 55 57 56 54 53 53 53 52 52 51 50 49 51 51 48 46 45 44 44 45 45 45 44 43 44 43 41 39 39 39 39 40 41 41 39 36 33 30 27 27 27 28 30 31 32
39 39 39 39 39 39 39 39 38 38 39 39 39 39 40 43 45 46 46 46 45 45 46 47 47 47 48 48 47 48 49 48 48 48 48 49 51 53 55 56 58 60 60 60 59 58 58 58 58 56 54 53 53 51 49 48 47 44 44 46 46 45 45 43 43 42 39 38 39 39 39 40 41 40 38 35 31 28 26 25 26 27 29 30 32
43 43 43 43 42 41 41 40 40 41 41 42 43 43 45 46 48 48 49 48 47 47 49 49 49 48 49 52 53 53 52 51 50 50 50 51 52 55 58 60 60 61 63 62 62 62 63 63 62 60 59 60 59 54 50 50 50 47 45 46 46 46 45 43 43 41 38 37 38 39 39 40 40 39 37 34 30 26 24 24 26 27 28 29 31
46 47 47 46 45 44 43 42 43 43 44 45 46 48 49 50 50 50 49 49 50 51 52 52 51 50 51 54 57 58 57 55 53 52 53 54 54 57 60 62 62 64 65 64 63 65 67 66 64 63 63 64 63 58 53 50 49 47 46 46 45 47 47 44 43 41 37 36 38 38 39 40 39 38 35 32 28 24 23 24 26 27 28 29 31
50 50 50 50 49 48 47 46 45 45 46 47 49 50 51 51 51 51 51 52 53 54 53 53 52 52 53 55 56 57 58 57 56 56 56 58 60 61 63 63 64 66 68 66 66 68 68 68 67 67 68 68 67 64 57 50 45 44 45 45 45 48 48 45 42 40 37 36 37 38 38 39 38 37 34 31 27 24 23 24 25 26 27 28 30
49 49 49 49 48 47 46 45 44 44 45 47 48 49 50 51 51 51 51 52 52 53 53 52 52 53 55 55 55 56 56 56 58 61 61 61 63 66 68 67 68 69 69 68 69 70 69 70 70 70 71 71 68 63 58 51 46 44 43 43 45 48 47 43 40 38 35 35 37 38 38 38 37 35 33 29 25 23 22 23 24 25 26 27 28
43 44 44 45 45 45 45 45 45 46 46 47 48 49 49 49 50 50 50 51 52 53 53 54 55 57 58 57 57 57 58 58 61 64 63 61 63 69 74 75 74 72 69 69 72 73 73 73 73 71 70 68 64 61 60 57 52 46 42 41 43 45 44 40 38 36 34 35 37 37 37 37 36 34 31 28 24 22 22 23 23 23 24 26 27
43 43 44 45 46 47 48 48 48 48 48 48 49 50 50 51 51 51 52 53 54 55 56 57 58 59 61 62 62 61 62 65 66 67 67 66 66 70 74 76 76 74 71 69 70 71 72 73 71 70 69 67 63 62 62 60 56 50 45 42 42 43 43 39 36 34 34 35 37 37 37 37 35 33 30 26 23 21 21 22 22 22 23 24 25
46 46 47 47 48 48 49 49 49 48 47 47 47 48 49 50 51 52 53 54 55 57 58 59 61 62 63 64 65 66 68 70 70 71 71 71 72 73 75 76 76 74 73 71 69 65 65 67 69 71 72 67 62 62 63 61 57 53 48 44 42 43 42 39 36 34 34 36 37 36 36 36 34 32 28 25 23 21 21 22 22 21 22 22 23
48 49 49 49 50 50 51 51 50 49 48 48 47 47 47 48 49 50 52 54 56 58 59 60 63 65 65 65 67 69 71 73 75 75 76 76 78 79 79 81 81 78 74 73 70 66 64 64 66 70 71 67 63 64 64 59 54 50 47 44 43 42 41 38 36 34 34 36 36 36 36 35 33 30 27 25 22 21 21 21 21 21 21 21 21
50 51 51 51 51 51 52 52 51 51 50 50 49 49 48 48 48 49 51 54 57 58 60 62 63 64 65 67 68 69 71 74 76 76 75 77 81 83 82 81 80 77 73 71 69 68 66 64 62 61 61 62 62 58 53 50 50 48 45 43 42 42 41 38 35 33 34 36 36 35 35 34 32 29 27 24 22 21 21 21 20 20 20 19 20
54 54 53 52 51 50 50 50 51 51 51 50 50 49 48 48 49 50 52 55 57 59 60 61 61 62 64 66 66 69 73 77 82 86 86 83 81 81 81 79 76 72 70 69 69 71 71 69 64 60 58 61 61 53 44 44 47 45 42 42 42 42 40 37 34 33 34 36 36 35 34 33 31 29 26 24 22 20 20 20 20 19 19 19 19
55 55 54 53 51 50 49 48 49 49 49 49 49 48 48 49 50 51 53 55 57 59 59 58 57 60 63 64 67 71 74 75 81 87 90 90 87 82 77 74 71 68 66 67 69 71 71 67 62 59 59 61 60 51 42 42 42 41 41 42 41 41 39 35 33 33 35 36 35 34 34 32 30 28 26 24 22 20 20 20 20 19 19 19 20
53 52 51 50 50 49 47 47 47 47 47 47 47 48 48 49 50 51 53 55 57 58 57 54 54 57 62 65 68 69 68 66 62 50 44 55 70 77 73 70 69 65 63 67 69 68 65 59 54 55 56 56 53 48 44 43 42 41 41 41 41 41 38 33 32 33 35 35 35 34 33 32 29 27 26 24 22 20 20 21 20 20 20 20 20
48 47 46 45 45 44 44 45 45 45 45 45 46 46 47 48 49 51 53 55 56 56 54 52 52 55 60 63 63 62 62 60 45 16 9 22 43 61 64 65 69 67 61 61 60 56 55 53 50 50 52 51 50 49 47 45 43 42 41 42 43 41 35 32 32 34 35 35 34 33 32 31 28 27 26 24 22 21 21 21 21 21 20 21 21
46 45 44 43 42 42 42 43 43 44 44 44 44 45 46 47 48 50 52 53 54 53 52 51 49 50 53 54 52 48 47 41 21 15 34 36 44 52 51 53 59 60 57 55 49 42 43 45 44 44 46 49 50 49 46 43 42 42 42 42 42 38 33 32 33 34 35 35 34 32 31 30 28 27 26 24 22 21 22 22 22 22 22 22 22
45 44 43 42 42 42 43 43 43 43 43 44 44 44 45 45 47 49 50 51 51 50 48 46 44 42 43 44 42 36 32 27 19 19 36 48 53 56 55 50 45 44 49 53 49 42 41 43 44 44 44 44 44 42 41 41 42 42 42 41 39 35 32 32 33 34 35 34 33 31 31 29 28 27 25 23 22 22 23 23 23 23 24 23 23
44 43 42 42 42 43 43 43 44 44 43 43 43 43 44 45 46 48 49 49 49 47 43 39 36 35 36 37 37 32 27 27 26 22 26 36 44 54 62 59 47 39 41 46 46 43 42 44 45 45 42 40 38 38 38 40 41 41 40 39 36 33 32 32 33 34 34 33 32 31 30 29 28 27 25 23 22 23 24 24 25 25 26 25 25
42 42 41 41 42 42 43 44 45 45 44 43 43 43 44 45 46 47 47 46 45 44 39 34 32 31 30 32 33 31 29 31 28 21 19 23 28 38 49 50 42 35 33 31 30 30 30 31 32 34 34 35 35 36 38 38 39 39 39 37 34 32 32 32 33 34 33 33 32 31 30 29 28 27 26 24 23 23 24 25 26 26 27 27 26
42 42 42 42 42 42 43 44 44 44 44 43 43 43 44 45 45 45 44 42 40 38 35 31 30 29 27 28 30 29 27 28 28 23 17 14 15 19 24 25 24 22 20 18 18 20 22 24 26 28 31 33 34 35 36 37 37 38 37 35 32 31 31 32 33 33 33 32 31 31 30 29 28 27 26 24 24 24 25 26 27 28 28 28 28
42 42 42 42 42 42 42 42 43 43 42 42 42 43 43 44 44 43 41 38 35 34 33 31 30 29 27 26 28 29 28 26 25 24 21 17 14 14 14 15 15 16 17 18 20 22 23 25 27 28 30 31 33 34 35 36 36 36 34 32 31 31 31 32 32 32 32 32 31 31 29 29 28 28 26 25 25 25 26 27 28 29 29 29 29
42 42 41 42 42 42 41 41 41 40 40 40 41 42 42 43 43 42 40 38 35 34 33 32 31 31 31 29 28 28 29 28 27 25 24 21 19 18 18 18 19 20 21 22 24 25 26 27 29 30 31 32 33 34 35 35 34 32 30 30 30 31 31 32 32 32 32 32 31 30 30 29 29 28 27 26 26 26 27 28 29 29 29 29 29
41 41 42 42 41 40 40 39 39 39 39 39 40 41 42 43 43 42 40 39 37 36 36 35 34 33 34 35 34 32 31 30 30 29 27 26 24 23 23 22 22 22 23 24 25 26 27 28 29 29 30 31 32 32 33 32 31 29 29 30 31 31 32 32 31 31 32 31 31 30 30 30 29 28 28 27 27 27 28 29 29 30 30 30 30
39 40 41 41 40 39 38 38 38 39 40 40 40 41 42 42 42 41 39 38 37 37 37 36 35 34 34 35 36 34 32 31 30 29 28 27 26 25 24 22 21 22 23 25 26 27 27 28 28 28 29 29 29 30 30 29 28 29 30 31 31 32 32 32 32 32 31 31 30 30 30 30 30 29 29 28 28 29 29 30 30 30 30 30 30
38 39 39 40 40 39 38 38 38 40 40 40 40 41 41 41 41 38 34 33 34 35 35 34 33 32 32 32 32 32 30 27 26 25 25 26 25 24 22 21 21 23 25 27 27 27 27 27 27 27 27 27 28 28 28 28 29 30 31 32 32 32 32 32 32 32 31 30 30 30 31 31 31 30 30 30 30 30 30 30 30 31 31 30 30
36 37 37 37 38 37 37 37 37 39 40 40 40 40 40 41 39 35 30 29 30 31 31 31 31 31 31 31 31 31 30 28 26 25 26 26 26 25 24 23 24 26 27 27 27 27 26 25 25 25 26 27 28 28 29 30 30 31 32 32 32 32 32 33 33 32 31 30 30 31 31 32 32 31 31 31 31 31 31 31 31 31 31 31 31
34 34 34 34 35 35 34 34 35 36 37 38 38 38 38 39 38 35 32 31 31 30 29 30 32 34 35 35 33 32 32 30 29 28 27 28 29 30 29 28 28 29 28 28 28 27 26 26 26 27 27 28 29 29 30 31 32 32 33 32 32 32 33 33 34 33 31 30 31 31 32 32 33 32 32 32 32 32 33 33 32 32 31 31 31
Wind_Direction
235 235 235 237 239 240 241 241 240 239 238 238 239 239 240 241 241 240 240 240 240 242 246 250 255 259 266 272 273 269 261 255 250 247 247 248 249 255 264 270 276 284 291 300 308 314 323 329 332 333 333 335 335 331 323 319 320 324 328 331 332 334 333 329 328 325 321 318 317 319 322 324 325 326 327 328 328 327 327 326 325 321 315 310 305
232 232 232 233 236 239 240 241 241 241 241 240 239 240 241 242 242 242 242 242 242 242 245 250 254 258 263 266 265 266 263 256 249 246 247 249 251 255 263 269 274 281 288 296 304 311 319 325 328 330 333 334 333 329 323 319 321 325 329 332 334 334 332 328 324 320 316 314 314 317 319 321 322 322 323 324 325 324 325 325 324 322 317 312 308
224 226 229 232 236 240 242 244 245 244 243 241 240 240 241 242 242 243 244 244 244 245 247 250 253 256 261 264 261 261 261 255 249 245 246 249 252 256 262 268 274 281 288 295 301 308 316 322 326 329 332 336 335 331 327 325 326 327 328 330 331 332 331 328 324 320 318 317 317 318 318 318 320 322 322 322 322 323 324 325 324 322 317 313 311
222 224 228 231 236 242 245 247 247 246 244 242 239 238 240 242 242 243 244 246 247 249 250 252 255 257 261 263 258 256 257 254 248 244 245 248 252 255 260 266 272 279 288 294 300 307 315 320 325 328 331 335 336 333 331 329 328 328 328 329 330 329 329 327 325 323 321 319 319 320 320 320 321 322 323 323 323 323 324 323 323 322 317 314 312
225 226 228 232 237 242 244 245 245 244 242 239 238 238 239 242 244 245 246 248 250 252 253 255 257 259 262 261 254 251 252 251 247 243 244 247 252 255 258 263 270 277 285 292 298 305 313 319 322 324 326 329 330 330 328 325 325 324 324 325 326 326 326 324 324 322 321 319 319 320 321 322 323 323 324 324 324 324 323 322 321 318 315 314 313
228 228 230 234 236 236 236 239 243 244 241 238 236 237 238 242 245 248 249 250 252 253 255 257 259 261 263 259 250 246 249 249 247 244 244 247 251 255 257 261 268 275 282 289 296 302 309 316 321 322 324 327 330 330 326 322 319 318 319 321 322 323 322 321 320 319 318 317 317 318 321 323 323 324 324 325 324 323 322 321 318 315 313 312 312
228 229 231 232 230 225 225 233 242 245 244 241 239 239 240 242 245 248 251 253 254 256 257 259 260 261 261 257 248 244 246 248 247 245 244 246 251 254 257 260 266 273 279 287 293 299 304 311 318 322 324 328 331 333 330 327 323 319 317 318 320 321 320 319 319 318 317 317 316 317 320 321 321 322 324 324 323 320 319 319 317 314 312 312 312
227 228 231 230 225 223 226 231 237 242 244 245 246 247 248 248 249 253 257 260 260 260 260 261 261 261 260 255 248 244 246 248 249 248 246 247 252 255 256 259 264 270 277 284 290 295 299 303 312 320 325 329 331 334 335 335 334 330 324 321 320 320 320 319 319 319 319 319 318 318 319 318 318 320 322 322 321 320 320 319 318 315 313 312 312
225 228 230 229 227 227 229 230 233 237 238 245 258 264 265 266 266 267 270 273 273 270 268 266 266 266 264 260 254 250 249 250 250 250 248 248 251 255 256 259 263 268 274 281 286 290 293 297 305 316 324 328 330 334 337 339 340 338 334 328 323 321 319 319 319 319 320 319 318 317 317 317 317 318 319 320 320 320 319 320 319 318 315 312 311
229 231 232 232 231 230 230 231 233 236 238 250 268 278 287 291 293 294 292 290 288 286 284 281 278 275 272 269 266 262 257 252 251 251 250 250 253 256 258 259 261 266 271 277 281 283 286 291 301 311 320 325 328 331 335 337 338 337 335 330 325 321 319 318 318 318 318 318 317 316 315 316 316 317 318 318 319 318 318 319 319 317 315 312 311
231 232 232 232 232 232 233 234 237 239 242 252 266 279 289 295 301 307 307 304 299 294 291 288 283 278 275 273 273 271 264 254 250 250 250 250 253 256 259 259 260 264 269 274 277 278 280 286 296 306 314 320 324 328 330 331 332 332 331 328 324 322 320 318 317 316 316 316 315 315 315 315 316 316 316 318 319 318 317 318 318 316 316 314 312
228 230 231 233 234 235 237 238 240 242 245 252 262 270 276 283 291 296 300 302 300 299 296 290 284 279 276 275 274 273 267 257 251 250 250 251 253 256 258 259 259 262 267 270 272 272 276 283 292 300 308 315 321 323 324 326 328 328 327 325 323 322 321 320 318 316 315 315 314 315 315 316 316 316 317 318 319 318 316 317 318 316 315 315 313
230 232 234 236 236 235 236 239 240 243 246 249 255 260 265 272 279 284 287 289 290 296 298 293 290 285 280 275 273 271 266 259 255 253 252 252 254 256 258 258 258 259 263 266 267 268 273 280 288 296 302 309 316 318 319 322 326 326 324 322 321 321 321 320 318 317 315 314 314 315 315 315 316 316 316 317 317 317 316 316 316 314 313 313 313
232 232 233 235 233 233 236 240 240 242 245 247 251 256 260 264 271 276 280 282 282 284 287 288 292 292 286 278 272 269 266 262 258 256 255 255 256 258 259 259 258 258 259 261 264 266 270 277 284 291 296 303 310 313 315 319 322 323 321 318 317 318 319 319 318 317 315 313 313 314 314 315 315 315 314 315 315 315 315 315 314 313 313 313 313
232 231 232 232 231 233 239 244 246 247 248 248 250 254 257 261 267 272 275 278 279 278 277 281 287 289 288 283 276 272 270 266 262 259 259 259 259 259 260 261 261 258 256 258 261 264 267 274 281 285 290 298 304 307 311 315 318 319 317 315 315 316 317 318 318 317 315 313 312 312 313 314 314 313 313 314 314 314 313 313 313 315 316 316 314
236 236 236 233 230 232 238 244 248 250 250 250 250 251 255 259 263 266 269 272 275 276 275 277 280 281 282 282 279 276 274 270 266 262 261 261 261 262 262 262 262 260 256 255 258 261 265 272 278 281 287 293 297 301 305 310 313 315 314 313 314 314 315 316 316 315 314 312 310 310 311 312 312 312 312 312 312 312 312 312 314 317 318 317 316
244 242 241 238 235 235 237 242 245 247 248 248 249 250 253 255 258 260 263 265 268 271 273 274 274 274 276 278 278 277 274 271 267 263 261 260 261 263 263 261 261 260 257 254 255 258 263 269 274 278 285 291 293 295 299 304 308 309 309 310 311 313 314 314 314 313 311 310 309 309 310 311 311 311 311 311 311 312 312 313 316 318 318 318 317
252 248 245 244 243 240 238 237 238 241 244 246 248 250 250 252 254 256 257 259 261 263 266 268 268 269 270 272 273 273 273 271 269 265 262 260 260 262 262 261 259 259 258 255 254 256 261 266 271 276 283 288 289 290 294 298 301 303 304 306 308 310 312 313 313 313 311 308 308 309 309 309 310 310 310 311 312 312 312 314 317 319 319 319 319
256 254 250 245 242 241 243 242 238 237 241 245 246 247 247 247 250 252 252 254 256 256 257 259 261 264 266 267 268 270 269 268 268 269 266 263 262 262 262 262 260 259 260 259 254 254 258 264 268 273 280 284 285 285 289 294 297 298 300 303 306 308 310 311 313 315 314 309 307 308 308 308 309 309 309 311 311 311 312 314 318 320 321 321 322
253 252 251 247 243 245 253 257 248 238 235 238 240 243 247 251 254 255 256 257 258 259 259 259 258 260 261 263 264 265 266 266 267 269 269 266 264 262 263 265 263 261 261 261 257 254 257 261 265 270 276 280 281 282 285 290 293 295 297 300 303 305 307 309 312 317 317 312 307 306 307 308 309 309 309 310 311 311 313 317 320 321 323 323 323
248 247 248 249 249 251 258 264 260 248 241 241 242 243 247 253 257 257 258 260 260 262 265 265 264 262 262 263 262 262 263 265 265 265 266 267 266 264 264 267 267 264 264 263 260 257 257 260 263 267 272 277 279 279 281 286 290 291 293 297 300 303 305 307 311 317 317 312 307 305 306 307 308 308 309 310 310 311 315 319 320 322 324 324 323
245 246 248 249 251 253 256 261 263 259 255 255 255 251 249 251 254 256 258 261 262 264 266 266 266 265 263 263 263 262 261 262 263 263 264 266 267 267 267 268 267 266 265 265 264 260 258 259 261 264 268 274 277 277 278 283 286 288 291 295 297 299 301 304 309 313 313 310 306 305 306 307 307 307 308 309 309 312 316 319 320 323 325 324 325
243 243 246 249 251 254 257 258 259 261 262 263 263 260 255 254 257 262 265 267 267 268 269 270 270 270 268 267 268 267 265 262 261 262 264 266 267 268 267 267 267 267 267 267 266 262 258 258 260 263 266 271 274 276 277 280 283 285 288 291 294 296 298 302 307 310 309 306 305 305 305 306 307 307 308 308 309 313 316 319 322 325 325 325 327
245 245 248 252 256 259 260 259 260 263 266 267 267 266 265 265 267 271 273 273 272 273 275 277 277 277 278 277 278 278 275 269 264 263 262 263 265 266 265 264 264 265 266 266 264 262 259 258 259 261 264 268 272 274 276 277 278 281 284 287 290 294 296 300 306 307 305 303 304 304 305 305 306 307 307 307 309 314 317 320 323 325 326 326 328
251 253 255 258 260 263 264 264 265 268 270 272 272 271 272 274 276 277 276 276 276 278 281 282 282 282 283 283 282 281 280 277 274 270 265 260 261 263 263 262 262 264 265 264 262 261 260 258 257 258 261 265 268 271 273 273 274 277 282 284 288 292 295 300 306 306 302 300 302 303 303 304 305 306 306 307 311 315 319 321 323 325 326 327 328
254 257 259 261 263 266 268 270 271 270 271 272 272 270 270 272 274 276 277 277 278 279 280 280 280 280 282 283 282 280 278 277 278 278 274 265 260 259 260 259 260 261 262 261 260 259 258 258 258 259 260 262 264 266 270 271 271 275 281 283 286 291 295 300 306 305 300 298 301 302 302 303 304 304 304 307 312 316 318 320 322 324 326 327 328
253 256 259 261 263 265 268 269 268 267 266 267 266 266 267 268 269 271 273 274 275 275 275 275 275 276 277 278 278 276 275 273 273 273 273 269 264 261 258 258 259 260 260 260 260 259 260 261 262 262 262 262 263 264 266 268 269 274 280 282 285 290 294 299 305 304 298 297 300 300 300 301 302 303 304 308 313 315 316 318 321 324 325 327 329
252 254 257 259 261 263 265 265 264 263 262 262 263 264 264 265 267 268 269 269 270 271 272 273 274 274 273 273 273 272 272 272 272 271 270 270 269 265 259 256 258 260 259 259 259 259 259 260 261 263 262 262 262 262 263 267 269 273 279 283 285 289 291 297 302 301 295 296 299 298 299 300 301 302 304 308 312 313 313 317 321 323 325 328 331
253 254 256 258 260 262 263 262 261 259 259 259 260 261 262 264 265 266 266 267 268 269 270 271 272 272 270 269 270 271 271 273 274 273 271 270 271 268 261 256 256 257 258 257 256 257 258 258 258 259 259 261 263 260 259 265 272 276 280 283 284 286 291 297 301 298 293 295 297 296 297 299 300 301 303 307 310 311 313 317 319 322 325 330 333
255 257 258 259 261 262 262 262 262 262 262 262 262 262 263 264 266 267 267 268 268 269 270 270 270 270 269 268 268 269 271 272 272 271 270 270 271 270 266 261 258 257 256 254 253 254 255 254 254 255 257 260 263 258 255 262 272 277 281 282 283 287 293 298 299 295 292 294 295 294 296 298 299 299 302 306 309 310 311 315 318 321 326 331 333
257 258 258 259 259 259 260 261 261 263 265 265 265 265 265 265 267 268 268 268 269 269 269 269 269 269 270 270 270 270 270 270 269 269 269 269 268 269 268 266 261 258 256 253 251 253 254 253 254 254 254 258 261 258 258 263 268 274 283 285 284 290 296 299 297 293 291 292 293 293 295 297 297 298 301 304 307 307 309 312 316 320 326 331 334
258 258 259 259 259 259 259 260 261 263 265 266 266 265 265 265 266 266 267 268 268 269 270 271 271 271 271 272 272 271 271 270 269 269 269 267 266 266 267 266 263 262 260 256 253 252 254 255 256 255 255 258 260 259 261 263 263 270 284 289 286 290 296 297 294 291 289 291 291 291 293 295 295 296 299 302 303 305 307 310 314 320 326 331 334
260 261 262 262 263 264 264 265 266 268 268 269 269 267 266 266 265 265 267 268 268 270 271 272 272 272 273 274 274 274 273 271 269 268 266 265 264 263 263 263 263 262 263 262 258 255 255 255 255 253 254 256 258 260 263 264 263 270 283 287 286 289 293 292 290 288 288 289 289 289 292 293 293 295 298 299 300 302 305 308 313 320 326 330 334
260 262 263 264 266 268 269 269 270 270 271 272 272 270 268 267 266 266 267 268 269 271 272 273 274 275 276 276 276 276 275 273 271 269 266 264 262 260 259 260 260 260 260 261 260 259 259 257 254 252 252 255 259 264 264 262 262 270 281 285 286 289 291 289 286 285 286 286 287 288 290 291 292 294 296 296 297 300 303 306 312 318 324 328 332
262 263 264 265 267 269 269 270 269 270 271 272 271 270 270 269 268 268 268 269 271 272 273 275 277 278 279 279 278 277 276 274 272 269 265 262 259 257 256 256 256 256 257 259 261 262 261 259 257 256 256 260 263 264 261 261 265 273 280 283 285 288 289 287 283 282 283 284 284 286 288 290 291 293 293 293 294 297 300 304 310 315 320 324 328
266 266 267 267 268 269 270 269 268 269 271 270 269 269 270 269 270 270 269 270 271 272 274 276 277 278 280 279 278 279 279 277 276 272 267 261 256 253 252 252 253 255 256 258 260 259 257 256 256 256 259 264 263 260 263 272 275 276 279 283 286 289 289 285 280 279 281 281 282 284 287 288 290 291 290 290 291 294 298 302 306 310 314 319 323
268 268 269 269 269 270 270 269 269 269 268 267 266 267 268 268 269 269 270 271 271 273 276 277 278 281 281 279 281 284 282 284 285 279 269 261 257 252 250 248 247 249 252 253 252 250 246 247 249 251 256 262 260 258 268 279 278 276 280 284 287 290 287 281 276 277 278 279 280 283 286 287 288 289 287 287 289 291 296 299 301 304 308 312 318
269 268 268 269 269 268 268 268 268 267 266 265 265 265 265 266 268 268 269 271 271 274 277 279 280 283 282 283 288 287 284 291 301 295 272 259 250 242 240 241 239 240 245 247 244 240 237 240 246 250 255 260 258 259 270 278 277 277 281 284 288 289 284 276 274 275 276 277 279 282 285 286 287 286 285 285 287 289 293 295 296 298 302 307 312
266 266 265 265 265 264 264 265 264 264 264 263 263 263 263 264 266 267 269 271 272 275 279 281 283 285 286 288 293 292 291 301 312 306 224 236 228 215 215 224 228 229 236 241 239 234 234 240 249 253 253 255 257 262 269 274 275 277 281 284 287 286 279 273 273 273 274 276 279 282 284 285 285 284 283 283 285 287 290 291 292 294 297 302 307
263 262 261 261 261 260 261 261 261 261 261 261 261 262 262 263 265 266 268 272 274 277 282 283 285 288 291 294 299 301 304 311 311 178 171 189 207 211 213 217 219 224 233 239 242 240 238 242 250 253 253 257 261 262 265 268 272 278 282 283 283 279 273 271 272 271 273 276 279 281 283 283 283 281 280 281 282 284 287 289 289 290 293 297 302
262 262 261 260 259 259 259 259 259 259 260 259 260 262 262 263 265 266 269 273 276 278 282 285 286 289 291 293 299 304 302 294 274 207 181 184 198 215 224 225 228 235 236 236 240 244 245 247 252 256 260 264 263 259 260 266 272 277 280 280 279 275 270 269 270 270 273 276 278 280 282 282 280 279 278 278 280 281 284 287 288 288 290 293 297
262 262 261 260 259 259 259 259 259 259 260 260 261 262 263 263 265 266 269 272 275 276 280 283 285 287 289 288 290 294 287 272 262 244 216 205 205 212 218 225 235 242 237 234 240 248 251 254 256 257 259 262 259 257 262 269 273 276 277 277 275 271 267 267 269 270 273 276 278 280 281 280 279 277 276 276 277 279 282 285 286 285 287 290 293
261 261 261 260 260 260 260 260 260 260 261 261 262 263 262 262 264 266 268 270 272 274 277 280 281 282 285 285 285 286 280 272 267 256 239 233 227 220 220 226 234 237 236 239 246 250 253 256 256 255 257 258 258 261 266 270 272 274 275 274 271 267 266 267 268 270 273 276 278 279 280 279 277 275 275 275 275 277 280 283 284 284 285 287 290
259 259 259 260 261 261 261 262 263 263 263 264 263 263 262 261 263 265 266 267 269 272 274 276 276 275 275 278 281 283 282 277 274 270 262 250 236 226 225 228 232 236 241 248 253 256 259 260 259 259 260 260 261 265 268 270 272 273 272 269 266 264 264 266 268 270 274 276 276 278 278 276 274 274 275 274 273 274 278 281 282 283 284 286 288
258 259 260 260 261 262 263 264 265 265 264 264 262 261 261 261 261 262 263 264 267 270 271 272 272 272 270 269 271 275 278 278 277 276 274 271 265 258 253 250 250 254 258 260 261 264 265 265 266 267 266 265 266 268 269 271 272 271 268 264 262 262 264 266 268 271 273 274 275 276 275 274 273 274 273 272 271 272 275 279 281 282 283 285 287
257 258 260 262 264 265 265 265 265 264 263 262 260 260 259 259 258 259 261 263 264 266 268 268 269 269 269 269 269 270 272 274 275 275 274 272 270 268 267 268 270 271 270 270 272 272 272 273 274 274 272 270 270 269 270 271 270 267 264 262 261 262 264 265 267 269 271 272 273 274 274 273 273 273 271 270 270 270 273 277 280 282 283 284 286
256 258 260 262 263 264 265 265 265 264 263 263 262 261 260 258 258 259 261 263 264 265 266 266 266 267 268 270 271 273 275 276 276 274 271 268 266 266 267 270 273 275 276 278 277 277 276 276 275 273 272 270 269 268 268 268 266 263 262 261 261 262 263 264 265 267 268 269 272 273 273 273 272 271 270 269 268 268 271 275 278 281 283 284 286
258 258 259 260 261 262 262 263 263 263 264 265 265 265 263 261 259 259 261 264 266 267 268 268 267 267 267 270 273 277 279 280 279 277 273 269 266 264 265 268 273 277 279 279 277 276 275 273 271 270 269 267 265 265 265 264 263 262 261 260 260 261 261 262 263 264 266 268 270 271 272 272 271 270 269 268 267 267 270 273 277 281 283 284 286
262 262 261 262 262 262 262 261 260 261 262 262 263 263 262 259 258 260 263 267 269 270 270 270 269 268 267 271 276 281 283 282 282 281 279 276 272 267 265 269 277 283 283 281 277 274 272 270 268 266 264 263 262 262 262 262 262 261 260 259 259 258 259 260 262 263 265 267 268 269 270 270 269 268 268 266 265 266 268 271 276 279 282 284 287
265 264 264 264 265 265 265 264 262 261 260 259 259 258 257 256 257 259 261 263 265 265 264 264 267 270 273 276 278 280 280 280 283 285 285 282 278 272 268 272 282 289 290 287 283 278 273 271 269 266 265 264 263 263 263 263 262 260 259 258 257 256 258 260 262 263 264 265 266 267 268 268 267 267 266 264 264 265 267 270 274 277 281 284 287
266 266 266 266 266 266 266 266 265 263 261 258 257 255 254 254 256 258 258 259 261 262 262 265 269 273 276 277 277 277 276 276 279 282 284 283 278 272 268 272 281 288 289 288 284 279 273 270 268 267 266 265 263 263 263 263 262 261 260 258 256 256 257 259 261 263 265 266 266 266 267 266 266 265 264 263 263 264 265 268 271 275 279 283 286
Height
5899 5900 5901 5902 5903 5904 5905 5906 5906 5907 5908 5909 5910 5911 5912 5913 5913 5914 5915 5916 5917 5918 5918 5919 5920 5921 5921 5922 5923 5923 5923 5924 5925 5924 5924 5924 5924 5924 5924 5923 5923 5923 5922 5922 5921 5920 5919 5918 5917 5916 5915 5914 5913 5912 5911 5910 5910 5910 5909 5909 5907 5906 5905 5903 5902 5901 5901 5900 5898 5897 5895 5894 5892 5890 5889 5887 5885 5883 5881 5879 5877 5875 5873 5871 5869
5897 5897 5898 5899 5900 5901 5902 5903 5903 5904 5905 5907 5908 5908 5909 5910 5910 5911 5913 5914 5914 5915 5916 5917 5917 5918 5919 5920 5920 5921 5921 5922 5923 5923 5922 5922 5922 5922 5922 5922 5922 5921 5921 5921 5920 5919 5918 5917 5916 5915 5914 5913 5912 5911 5910 5909 5908 5908 5907 5906 5905 5904 5903 5902 5901 5899 5898 5897 5896 5895 5893 5891 5889 5888 5886 5884 5882 5880 5878 5876 5874 5872 5869 5867 5865
5894 5894 5895 5897 5898 5898 5899 5900 5901 5902 5903 5904 5905 5905 5906 5906 5907 5908 5910 5911 5912 5913 5914 5914 5915 5916 5917 5918 5918 5919 5919 5919 5920 5920 5920 5920 5920 5920 5920 5920 5920 5920 5920 5919 5919 5918 5917 5916 5915 5914 5912 5911 5911 5910 5909 5908 5907 5906 5905 5904 5903 5902 5901 5899 5898 5897 5895 5894 5893 5892 5891 5889 5887 5885 5883 5881 5879 5877 5875 5873 5871 5869 5866 5864 5862
5891 5892 5893 5894 5895 5896 5897 5897 5898 5899 5900 5900 5901 5902 5902 5903 5904 5906 5907 5908 5910 5911 5911 5912 5913 5913 5915 5915 5916 5916 5916 5917 5918 5918 5918 5918 5918 5918 5918 5918 5918 5918 5918 5918 5917 5917 5915 5914 5913 5912 5911 5910 5909 5908 5907 5906 5905 5904 5903 5902 5901 5900 5898 5897 5895 5894 5892 5891 5889 5889 5888 5886 5884 5882 5880 5877 5875 5874 5871 5869 5867 5865 5863 5860 5858
5888 5890 5891 5892 5893 5894 5894 5895 5895 5896 5896 5897 5898 5899 5900 5900 5901 5903 5904 5906 5907 5908 5909 5909 5910 5911 5912 5913 5914 5914 5914 5914 5915 5915 5916 5916 5916 5916 5916 5916 5916 5916 5916 5916 5916 5915 5914 5913 5912 5911 5909 5908 5907 5906 5906 5905 5904 5902 5901 5900 5899 5898 5896 5894 5893 5892 5890 5888 5886 5885 5884 5882 5881 5879 5876 5874 5872 5870 5868 5866 5864 5861 5859 5856 5854
5885 5887 5888 5889 5891 5892 5892 5893 5893 5893 5894 5894 5895 5896 5897 5898 5899 5900 5902 5903 5904 5905 5906 5907 5907 5908 5909 5910 5911 5911 5911 5911 5912 5912 5913 5913 5914 5914 5914 5914 5914 5914 5914 5914 5914 5913 5913 5912 5911 5910 5908 5907 5906 5905 5904 5903 5901 5900 5899 5898 5897 5895 5894 5892 5891 5890 5888 5886 5884 5882 5880 5878 5876 5874 5873 5871 5869 5867 5864 5862 5860 5857 5855 5852 5850
5882 5884 5886 5887 5889 5890 5890 5891 5891 5891 5891 5892 5893 5893 5894 5895 5896 5897 5899 5900 5901 5902 5903 5904 5904 5905 5906 5906 5907 5908 5908 5909 5909 5910 5910 5911 5911 5911 5911 5912 5912 5912 5912 5912 5912 5911 5911 5910 5909 5908 5907 5905 5904 5903 5902 5900 5899 5897 5896 5895 5894 5893 5891 5889 5888 5887 5886 5884 5882 5880 5878 5875 5873 5870 5869 5867 5865 5863 5861 5859 5856 5854 5851 5849 5846
5880 5882 5883 5885 5887 5888 5888 5888 5889 5889 5890 5890 5891 5892 5892 5893 5894 5895 5896 5897 5898 5899 5899 5900 5901 5901 5902 5902 5904 5905 5905 5906 5906 5907 5908 5908 5908 5908 5909 5909 5909 5909 5910 5910 5909 5909 5908 5908 5907 5906 5905 5903 5902 5901 5899 5898 5897 5895 5893 5892 5891 5890 5888 5886 5885 5884 5882 5881 5879 5877 5875 5872 5870 5867 5865 5863 5861 5859 5857 5855 5853 5850 5847 5845 5842
5877 5879 5881 5883 5884 5885 5885 5886 5887 5887 5888 5889 5889 5890 5891 5891 5892 5893 5894 5895 5895 5896 5896 5897 5898 5898 5899 5899 5900 5902 5902 5903 5904 5904 5905 5905 5905 5905 5906 5906 5907 5906 5907 5907 5907 5906 5906 5905 5905 5903 5902 5900 5899 5898 5897 5895 5894 5892 5891 5890 5888 5886 5885 5883 5881 5880 5879 5877 5875 5873 5871 5869 5866 5864 5862 5860 5857 5855 5853 5851 5848 5845 5842 5840 5837
5876 5877 5879 5881 5882 5882 5882 5883 5884 5885 5886 5887 5887 5888 5889 5889 5890 5891 5892 5892 5893 5893 5894 5894 5895 5896 5896 5897 5898 5899 5900 5901 5901 5901 5901 5902 5901 5902 5903 5903 5904 5904 5904 5904 5904 5904 5903 5903 5902 5901 5899 5898 5896 5895 5894 5892 5891 5890 5888 5887 5885 5883 5882 5880 5878 5876 5875 5873 5871 5869 5867 5865 5863 5860 5858 5856 5854 5851 5849 5847 5844 5841 5838 5835 5831
5874 5875 5877 5878 5878 5879 5879 5880 5882 5883 5884 5884 5885 5886 5886 5887 5888 5889 5890 5890 5890 5891 5891 5892 5893 5893 5894 5894 5895 5896 5897 5897 5898 5898 5898 5898 5898 5899 5899 5900 5900 5901 5901 5902 5902 5901 5901 5900 5899 5898 5896 5895 5894 5893 5891 5890 5889 5887 5885 5884 5882 5880 5878 5877 5875 5873 5871 5869 5867 5865 5863 5861 5859 5856 5854 5852 5850 5847 5845 5842 5839 5836 5832 5829 5826
5871 5873 5874 5875 5875 5876 5877 5878 5879 5880 5881 5882 5883 5883 5884 5885 5886 5887 5887 5888 5888 5889 5889 5889 5890 5890 5891 5892 5892 5893 5894 5894 5894 5895 5895 5895 5896 5896 5896 5897 5897 5898 5898 5899 5899 5898 5897 5897 5896 5895 5893 5892 5891 5890 5889 5888 5886 5884 5883 5881 5879 5877 5875 5873 5871 5869 5867 5866 5864 5861 5859 5857 5855 5852 5850 5847 5845 5843 5840 5837 5834 5830 5827 5824 5820
5868 5870 5871 5872 5873 5874 5874 5875 5877 5878 5879 5880 5880 5881 5882 5883 5884 5884 5885 5885 5886 5886 5887 5887 5887 5888 5888 5889 5889 5890 5890 5891 5891 5891 5892 5892 5893 5893 5893 5894 5894 5895 5895 5895 5895 5895 5894 5893 5892 5891 5890 5889 5888 5887 5886 5885 5883 5882 5880 5878 5876 5874 5871 5869 5867 5865 5864 5862 5860 5858 5855 5853 5851 5848 5846 5843 5841 5838 5836 5833 5830 5826 5822 5819 5815
5865 5867 5868 5869 5870 5871 5872 5873 5874 5875 5876 5877 5877 5878 5879 5880 5881 5882 5882 5883 5883 5884 5884 5884 5885 5885 5885 5885 5885 5886 5887 5887 5888 5888 5888 5889 5889 5889 5889 5890 5891 5891 5892 5892 5891 5891 5891 5890 5889 5888 5886 5885 5884 5884 5883 5882 5881 5879 5877 5875 5873 5871 5868 5866 5864 5862 5860 5858 5856 5854 5851 5849 5847 5844 5842 5839 5837 5834 5831 5828 5825 5821 5818 5814 5810
5861 5863 5865 5866 5868 5868 5869 5871 5872 5873 5874 5874 5875 5875 5876 5877 5878 5879 5879 5880 5880 5881 5881 5881 5882 5882 5882 5882 5882 5882 5883 5884 5884 5884 5884 5885 5885 5885 5885 5886 5887 5887 5887 5887 5887 5887 5887 5886 5885 5884 5883 5882 5881 5880 5879 5878 5877 5876 5873 5871 5869 5867 5865 5863 5860 5858 5856 5854 5852 5850 5847 5845 5843 5840 5838 5835 5832 5830 5826 5823 5819 5816 5812 5809 5805
5858 5860 5862 5863 5865 5866 5867 5868 5869 5870 5870 5871 5871 5872 5873 5874 5874 5875 5876 5876 5876 5877 5877 5878 5878 5878 5878 5879 5879 5879 5880 5880 5880 5880 5880 5880 5880 5880 5880 5881 5882 5883 5883 5883 5883 5883 5882 5882 5881 5880 5879 5878 5877 5876 5875 5874 5873 5872 5870 5868 5866 5864 5861 5859 5857 5855 5852 5850 5848 5845 5843 5841 5838 5836 5834 5831 5828 5825 5822 5818 5814 5810 5807 5803 5800
5856 5858 5859 5861 5862 5863 5864 5865 5865 5866 5866 5867 5868 5868 5869 5870 5870 5870 5871 5872 5872 5873 5873 5874 5874 5874 5874 5875 5876 5876 5876 5876 5876 5876 5875 5875 5875 5875 5875 5876 5877 5878 5878 5878 5878 5878 5878 5878 5877 5876 5875 5874 5872 5871 5871 5870 5869 5868 5866 5864 5862 5860 5857 5855 5853 5851 5848 5846 5843 5841 5839 5836 5834 5832 5829 5826 5824 5820 5817 5813 5809 5806 5802 5799 5796
5853 5855 5857 5858 5859 5859 5859 5860 5860 5861 5862 5863 5864 5865 5865 5865 5865 5865 5866 5867 5868 5869 5869 5869 5869 5870 5870 5871 5871 5872 5872 5872 5872 5871 5870 5870 5870 5870 5870 5870 5871 5872 5873 5873 5874 5874 5873 5873 5872 5872 5871 5870 5868 5867 5866 5866 5865 5864 5862 5860 5858 5855 5853 5851 5849 5846 5844 5841 5838 5836 5834 5832 5830 5827 5825 5822 5819 5815 5812 5809 5805 5801 5798 5794 5791
5850 5852 5853 5855 5856 5855 5854 5855 5856 5858 5859 5859 5860 5861 5861 5860 5860 5860 5861 5862 5862 5863 5863 5864 5864 5865 5865 5866 5867 5867 5867 5867 5867 5867 5866 5865 5864 5864 5864 5863 5865 5867 5868 5868 5868 5869 5868 5868 5868 5867 5867 5865 5864 5863 5862 5861 5861 5859 5857 5855 5853 5851 5849 5847 5844 5842 5839 5835 5833 5831 5829 5827 5825 5823 5820 5817 5814 5811 5808 5804 5800 5797 5793 5790 5787
5847 5847 5848 5850 5851 5850 5850 5852 5854 5855 5855 5855 5855 5856 5856 5856 5856 5856 5857 5857 5857 5857 5857 5858 5859 5860 5860 5860 5861 5862 5862 5862 5863 5862 5861 5860 5859 5859 5858 5858 5860 5862 5863 5862 5863 5863 5864 5863 5863 5863 5862 5860 5859 5858 5857 5857 5855 5854 5852 5851 5849 5846 5844 5842 5840 5837 5834 5831 5828 5827 5825 5823 5821 5818 5815 5813 5810 5807 5803 5799 5796 5792 5789 5786 5783
5842 5842 5844 5845 5845 5845 5847 5848 5849 5849 5850 5850 5850 5850 5851 5851 5852 5852 5852 5852 5852 5853 5853 5854 5854 5855 5855 5855 5856 5857 5857 5857 5858 5858 5857 5855 5853 5853 5853 5853 5855 5857 5857 5856 5857 5858 5858 5858 5858 5857 5856 5855 5855 5854 5853 5852 5850 5849 5847 5846 5844 5842 5840 5838 5835 5833 5830 5827 5825 5823 5821 5819 5817 5814 5811 5809 5806 5802 5799 5795 5791 5788 5785 5782 5779
5838 5839 5840 5841 5841 5842 5843 5844 5844 5844 5844 5844 5845 5846 5846 5846 5847 5847 5847 5847 5848 5848 5849 5849 5849 5850 5850 5850 5850 5851 5851 5851 5851 5852 5852 5850 5849 5848 5848 5849 5850 5850 5849 5850 5851 5852 5852 5852 5852 5852 5851 5850 5850 5849 5848 5847 5845 5844 5843 5841 5839 5837 5835 5833 5831 5828 5826 5823 5821 5819 5818 5815 5813 5810 5807 5805 5802 5798 5794 5791 5787 5784 5781 5778 5775
5834 5835 5836 5837 5838 5838 5838 5839 5839 5839 5839 5840 5840 5841 5841 5842 5843 5843 5843 5843 5843 5844 5844 5845 5845 5845 5845 5845 5846 5846 5846 5845 5845 5846 5846 5845 5844 5843 5843 5844 5844 5843 5842 5844 5845 5846 5846 5846 5846 5846 5845 5845 5844 5844 5843 5842 5840 5839 5838 5836 5835 5833 5831 5829 5827 5824 5822 5819 5817 5815 5813 5811 5808 5806 5803 5800 5797 5794 5790 5786 5783 5780 5777 5774 5771
5829 5830 5831 5832 5833 5833 5834 5834 5834 5834 5835 5835 5836 5836 5837 5838 5838 5838 5837 5837 5838 5839 5839 5839 5839 5839 5839 5840 5840 5840 5839 5838 5838 5840 5840 5840 5839 5838 5837 5838 5837 5835 5835 5837 5838 5839 5840 5841 5840 5839 5839 5839 5838 5838 5838 5837 5835 5834 5833 5831 5830 5828 5826 5824 5822 5819 5817 5815 5813 5811 5809 5807 5804 5801 5799 5796 5793 5789 5786 5782 5779 5776 5774 5771 5768
5823 5824 5825 5826 5827 5828 5828 5829 5829 5829 5829 5830 5831 5832 5832 5832 5831 5831 5832 5832 5832 5832 5832 5832 5832 5832 5832 5833 5833 5833 5832 5831 5832 5833 5833 5832 5832 5832 5831 5830 5830 5829 5829 5830 5832 5832 5833 5834 5833 5832 5833 5834 5833 5832 5832 5831 5829 5828 5827 5826 5824 5822 5821 5819 5817 5814 5812 5810 5808 5806 5805 5802 5800 5797 5795 5792 5789 5785 5781 5778 5775 5773 5770 5767 5764
5817 5818 5819 5820 5821 5822 5823 5823 5824 5824 5824 5824 5825 5826 5827 5826 5826 5826 5826 5826 5826 5826 5826 5825 5825 5824 5824 5825 5825 5825 5824 5824 5825 5825 5825 5824 5824 5824 5822 5821 5821 5821 5821 5822 5823 5824 5824 5826 5827 5827 5828 5828 5826 5825 5825 5824 5823 5822 5821 5820 5818 5817 5815 5814 5811 5808 5806 5805 5803 5802 5800 5798 5796 5793 5791 5788 5784 5781 5777 5774 5772 5769 5766 5764 5761
5812 5813 5814 5814 5815 5816 5817 5818 5818 5818 5819 5819 5820 5820 5821 5821 5821 5821 5820 5820 5820 5819 5819 5818 5818 5818 5818 5817 5816 5815 5816 5816 5816 5817 5817 5816 5816 5815 5813 5811 5811 5812 5811 5813 5816 5817 5817 5818 5820 5820 5820 5819 5818 5818 5819 5817 5817 5816 5815 5814 5813 5812 5810 5808 5805 5803 5801 5799 5798 5797 5795 5794 5791 5789 5786 5783 5779 5776 5773 5771 5768 5766 5763 5760 5757
5807 5808 5809 5809 5810 5811 5811 5812 5812 5813 5814 5814 5814 5814 5814 5814 5814 5814 5814 5813 5812 5812 5812 5811 5811 5812 5811 5810 5808 5807 5807 5807 5808 5809 5810 5809 5808 5806 5804 5802 5802 5802 5803 5805 5808 5808 5807 5809 5811 5812 5810 5809 5809 5811 5812 5811 5810 5810 5809 5808 5807 5806 5804 5802 5800 5798 5796 5794 5793 5792 5790 5789 5787 5784 5781 5778 5775 5772 5769 5767 5764 5762 5759 5756 5753
5801 5802 5803 5804 5804 5805 5805 5806 5807 5807 5808 5808 5808 5807 5807 5807 5807 5807 5807 5806 5805 5805 5805 5805 5805 5805 5803 5802 5800 5799 5799 5801 5802 5802 5803 5801 5799 5796 5795 5793 5792 5793 5795 5797 5797 5796 5797 5800 5802 5802 5801 5800 5800 5802 5804 5804 5804 5804 5803 5802 5801 5800 5798 5797 5795 5792 5791 5789 5788 5787 5786 5784 5782 5779 5776 5774 5771 5768 5765 5763 5761 5758 5755 5752 5749
5795 5796 5796 5797 5798 5798 5799 5799 5800 5801 5801 5801 5801 5801 5800 5800 5800 5800 5800 5799 5798 5798 5797 5797 5797 5796 5794 5793 5793 5792 5793 5795 5795 5792 5792 5793 5791 5787 5784 5783 5782 5781 5784 5787 5785 5784 5785 5788 5791 5792 5792 5792 5792 5794 5796 5797 5797 5797 5796 5796 5795 5794 5792 5791 5789 5786 5785 5784 5783 5782 5781 5779 5777 5774 5772 5769 5766 5764 5762 5760 5757 5755 5752 5748 5746
5788 5789 5790 5790 5791 5792 5792 5793 5794 5794 5794 5794 5794 5794 5793 5794 5793 5793 5792 5791 5790 5789 5788 5788 5788 5786 5785 5785 5786 5785 5786 5786 5784 5782 5782 5784 5782 5776 5772 5770 5769 5770 5772 5774 5773 5774 5775 5777 5780 5783 5783 5784 5785 5787 5788 5789 5790 5791 5790 5790 5789 5788 5786 5784 5782 5781 5780 5779 5778 5777 5776 5774 5772 5770 5767 5765 5762 5760 5758 5756 5754 5751 5748 5745 5742
5782 5783 5783 5784 5785 5785 5786 5786 5787 5787 5787 5788 5787 5787 5786 5786 5785 5784 5784 5782 5781 5780 5779 5779 5779 5778 5776 5775 5775 5775 5775 5774 5773 5772 5772 5773 5772 5768 5764 5763 5762 5763 5763 5763 5763 5766 5769 5770 5773 5774 5774 5776 5779 5781 5781 5782 5783 5784 5784 5784 5783 5783 5781 5778 5776 5776 5775 5774 5773 5772 5771 5770 5768 5765 5763 5760 5758 5756 5754 5753 5750 5748 5745 5742 5739
5775 5776 5776 5777 5777 5778 5778 5779 5779 5780 5780 5780 5780 5779 5778 5778 5777 5776 5775 5774 5773 5772 5771 5770 5769 5768 5767 5766 5764 5763 5762 5760 5760 5761 5760 5760 5760 5757 5754 5753 5753 5755 5756 5755 5755 5759 5762 5764 5767 5768 5767 5770 5773 5774 5773 5775 5777 5778 5778 5778 5777 5776 5774 5772 5771 5770 5770 5769 5768 5767 5766 5765 5763 5761 5758 5756 5754 5752 5751 5749 5747 5744 5741 5739 5736
5769 5769 5769 5770 5770 5770 5771 5771 5771 5772 5772 5772 5771 5771 5770 5769 5769 5768 5767 5765 5764 5763 5763 5762 5759 5757 5757 5756 5754 5752 5749 5746 5745 5745 5746 5747 5746 5745 5743 5742 5741 5743 5746 5747 5749 5752 5754 5755 5756 5759 5762 5765 5767 5767 5767 5769 5771 5771 5772 5771 5771 5770 5768 5766 5765 5765 5764 5764 5763 5762 5761 5760 5758 5756 5753 5751 5750 5748 5747 5745 5743 5741 5738 5736 5734
5761 5762 5762 5762 5763 5763 5763 5763 5763 5764 5764 5763 5763 5763 5762 5761 5761 5760 5759 5758 5756 5756 5755 5753 5751 5748 5747 5744 5742 5739 5735 5731 5727 5727 5729 5730 5729 5731 5734 5734 5732 5735 5739 5742 5743 5745 5747 5749 5751 5754 5758 5762 5762 5761 5762 5764 5765 5765 5765 5765 5764 5763 5761 5760 5760 5759 5759 5758 5758 5757 5756 5755 5753 5751 5749 5747 5746 5744 5743 5741 5739 5737 5735 5733 5731
5753 5753 5754 5755 5755 5755 5755 5755 5755 5756 5756 5755 5755 5755 5755 5754 5754 5753 5751 5750 5749 5748 5748 5746 5744 5741 5738 5734 5731 5725 5720 5715 5710 5705 5706 5709 5711 5715 5719 5723 5725 5730 5735 5737 5737 5737 5738 5741 5747 5750 5754 5756 5756 5757 5759 5760 5759 5759 5759 5758 5757 5756 5754 5754 5754 5754 5753 5753 5752 5752 5751 5750 5748 5746 5744 5743 5741 5740 5739 5737 5736 5734 5733 5731 5728
5745 5746 5746 5746 5747 5747 5748 5748 5748 5748 5748 5748 5748 5748 5747 5747 5747 5745 5744 5742 5741 5741 5740 5739 5737 5733 5728 5724 5721 5715 5709 5704 5693 5677 5671 5678 5687 5694 5703 5711 5717 5722 5727 5729 5729 5728 5727 5731 5739 5744 5746 5748 5749 5751 5753 5754 5753 5754 5753 5752 5751 5749 5748 5748 5748 5748 5748 5748 5747 5747 5746 5744 5743 5742 5740 5738 5737 5736 5735 5733 5732 5731 5730 5728 5726
5738 5738 5738 5739 5739 5740 5740 5741 5741 5741 5741 5741 5741 5741 5740 5740 5739 5738 5737 5735 5734 5734 5733 5732 5730 5725 5718 5715 5712 5705 5697 5692 5678 5658 5651 5658 5666 5670 5681 5694 5703 5709 5715 5718 5719 5720 5722 5727 5732 5736 5739 5741 5743 5745 5746 5747 5747 5748 5747 5746 5744 5743 5742 5743 5743 5743 5743 5742 5742 5741 5741 5739 5738 5737 5735 5734 5733 5732 5731 5730 5729 5728 5727 5725 5723
5731 5731 5731 5732 5732 5733 5733 5734 5734 5734 5734 5734 5734 5734 5733 5733 5732 5731 5730 5728 5727 5726 5726 5725 5723 5718 5711 5707 5702 5695 5691 5689 5677 5659 5657 5669 5674 5670 5670 5678 5686 5694 5703 5710 5713 5715 5719 5723 5727 5730 5733 5735 5736 5737 5739 5740 5741 5741 5740 5739 5738 5737 5737 5738 5738 5738 5737 5737 5737 5736 5736 5735 5734 5732 5731 5730 5729 5728 5727 5727 5726 5725 5724 5723 5721
5724 5725 5725 5725 5726 5726 5727 5727 5727 5728 5728 5727 5727 5726 5726 5726 5725 5724 5722 5721 5720 5719 5718 5717 5715 5712 5706 5700 5694 5689 5691 5695 5690 5677 5669 5674 5679 5678 5677 5678 5682 5689 5698 5706 5711 5713 5716 5719 5722 5725 5727 5729 5729 5731 5732 5734 5735 5734 5734 5733 5732 5732 5732 5733 5733 5732 5732 5732 5731 5731 5731 5730 5729 5728 5727 5726 5725 5724 5724 5723 5723 5722 5721 5720 5718
5718 5718 5719 5719 5719 5719 5720 5720 5721 5721 5721 5721 5720 5720 5720 5720 5719 5718 5716 5715 5714 5713 5712 5710 5709 5707 5703 5697 5691 5689 5691 5695 5698 5693 5683 5675 5674 5678 5680 5682 5685 5690 5696 5702 5707 5710 5712 5714 5717 5719 5721 5722 5723 5724 5726 5727 5728 5728 5727 5727 5726 5726 5727 5728 5727 5727 5727 5726 5726 5726 5726 5725 5724 5724 5723 5722 5721 5720 5720 5720 5719 5719 5718 5717 5715
5711 5712 5712 5712 5712 5713 5713 5714 5714 5715 5715 5714 5714 5713 5713 5713 5712 5711 5710 5709 5708 5707 5707 5705 5703 5702 5700 5694 5689 5689 5691 5693 5695 5695 5692 5684 5679 5678 5680 5683 5688 5693 5697 5701 5704 5707 5708 5710 5711 5713 5715 5716 5717 5719 5720 5721 5722 5722 5721 5721 5721 5721 5722 5722 5722 5722 5721 5721 5721 5721 5721 5721 5720 5719 5718 5717 5717 5717 5717 5716 5716 5715 5715 5714 5712
5705 5705 5706 5706 5706 5706 5706 5707 5708 5708 5708 5708 5708 5707 5707 5707 5706 5705 5703 5702 5701 5700 5700 5700 5699 5697 5696 5692 5688 5686 5688 5690 5691 5692 5692 5691 5688 5686 5687 5690 5694 5696 5697 5699 5701 5702 5704 5705 5706 5707 5709 5710 5712 5713 5714 5715 5715 5715 5715 5715 5715 5716 5716 5717 5716 5716 5716 5716 5716 5716 5716 5716 5716 5715 5714 5713 5713 5713 5713 5713 5713 5712 5711 5710 5709
5698 5699 5699 5699 5699 5699 5700 5700 5701 5702 5702 5702 5702 5701 5701 5701 5700 5698 5696 5695 5695 5694 5693 5694 5694 5693 5692 5690 5687 5684 5683 5683 5685 5687 5688 5689 5690 5691 5692 5694 5695 5695 5695 5696 5697 5698 5699 5700 5701 5702 5703 5704 5706 5707 5707 5708 5708 5708 5709 5709 5710 5710 5711 5711 5711 5711 5711 5711 5711 5711 5711 5711 5711 5710 5709 5709 5709 5709 5710 5709 5709 5709 5708 5707 5705
5691 5692 5692 5692 5693 5693 5693 5694 5694 5695 5695 5695 5695 5695 5694 5694 5693 5692 5690 5689 5689 5688 5688 5687 5687 5688 5688 5687 5685 5683 5682 5680 5679 5680 5681 5682 5684 5685 5685 5686 5687 5688 5689 5690 5691 5692 5693 5694 5695 5696 5697 5698 5699 5700 5700 5701 5702 5702 5703 5704 5704 5705 5705 5706 5706 5706 5706 5706 5706 5707 5707 5707 5706 5705 5705 5705 5705 5705 5706 5706 5705 5705 5704 5703 5702
5685 5686 5686 5686 5687 5687 5687 5688 5688 5688 5689 5689 5689 5688 5688 5687 5686 5686 5685 5684 5684 5684 5683 5683 5682 5682 5682 5682 5682 5681 5680 5678 5677 5676 5675 5675 5676 5676 5677 5678 5679 5680 5681 5682 5684 5685 5686 5687 5688 5689 5690 5691 5693 5693 5694 5695 5696 5696 5697 5698 5699 5699 5700 5700 5701 5701 5701 5701 5701 5702 5702 5702 5701 5701 5700 5700 5701 5702 5702 5702 5702 5701 5700 5699 5698
5679 5680 5680 5680 5681 5681 5681 5681 5682 5682 5682 5683 5683 5683 5682 5682 5682 5681 5680 5679 5679 5679 5678 5679 5678 5677 5677 5677 5677 5677 5677 5676 5675 5674 5673 5673 5673 5673 5673 5674 5674 5675 5676 5677 5678 5679 5680 5681 5683 5684 5685 5686 5687 5688 5689 5689 5690 5691 5692 5693 5694 5694 5695 5695 5696 5696 5696 5696 5697 5697 5697 5697 5696 5696 5696 5696 5697 5698 5698 5698 5698 5697 5696 5695 5694
5673 5674 5674 5675 5675 5676 5676 5676 5676 5676 5676 5677 5677 5677 5676 5676 5676 5675 5675 5674 5674 5673 5673 5673 5673 5674 5673 5672 5672 5672 5672 5672 5671 5671 5671 5670 5670 5671 5671 5671 5672 5672 5673 5674 5674 5675 5676 5677 5678 5679 5680 5681 5682 5682 5683 5684 5685 5686 5687 5688 5689 5690 5690 5690 5690 5690 5691 5691 5692 5692 5692 5692 5692 5692 5692 5692 5692 5693 5694 5694 5693 5693 5692 5691 5689
5666 5667 5668 5668 5668 5669 5669 5669 5670 5670 5671 5671 5671 5671 5671 5670 5669 5670 5670 5670 5668 5667 5667 5667 5668 5668 5668 5668 5668 5668 5668 5668 5668 5667 5667 5667 5667 5668 5668 5669 5670 5670 5671 5671 5671 5672 5672 5673 5673 5674 5675 5676 5676 5677 5678 5679 5680 5681 5682 5683 5684 5684 5685 5685 5685 5685 5686 5686 5687 5686 5686 5687 5687 5687 5687 5687 5688 5689 5689 5689 5689 5688 5687 5686 5685
5659 5660 5660 5661 5661 5661 5662 5662 5663 5663 5664 5665 5664 5664 5664 5664 5663 5664 5665 5664 5662 5661 5661 5662 5663 5663 5663 5664 5664 5664 5664 5664 5664 5664 5665 5665 5665 5665 5665 5666 5666 5667 5667 5667 5667 5667 5668 5669 5669 5670 5670 5671 5672 5672 5673 5674 5674 5675 5676 5677 5679 5679 5679 5679 5679 5680 5681 5681 5681 5681 5681 5682 5682 5682 5682 5682 5683 5684 5684 5684 5684 5684 5683 5682 5681
5653 5653 5654 5654 5654 5654 5655 5656 5656 5656 5657 5658 5658 5658 5658 5658 5658 5659 5659 5659 5658 5657 5657 5657 5658 5658 5658 5658 5659 5659 5659 5660 5661 5661 5662 5662 5662 5662 5662 5662 5662 5663 5663 5663 5663 5664 5664 5664 5664 5665 5665 5666 5666 5667 5667 5668 5669 5670 5671 5672 5674 5674 5675 5674 5674 5675 5676 5676 5676 5676 5676 5677 5677 5677 5677 5678 5678 5679 5679 5680 5679 5679 5678 5677 5676